SENTINEL-5P

Last updated on Sat Dec 13 2025 00:02:31 GMT+0000 (Coordinated Universal Time)

1 42969U 17064A 25346.27342627 .00000155 00000+0 94415-4 0 9998 2 42969 98.7785 284.8617 0000950 88.7730 271.3555 14.19517396423046
UTC large
Height (km)
Speed (km/s)
/
Latitude / Longitude
Inclination (degrees)
Orbital Period (minutes)
Azimuth
Elevation
Range (km)
Doppler Factor

Next 0 passes for location: London (51.5072 / 0.1276)

Sorry there are no passes over London.